N1OTX Weather Reports


time (UTC)temp
F
wind
direction
speed
knots
gust
knots
rain 1hr
in
rain 24hr
in
rain mn
in
humidity
%
barometer
mb
20260503041029 48 199 0.0 0.9 0.00 0.06 0.00 84 1010.4
20260503040549 48 199 0.0 0.9 0.00 0.06 0.00 85 1010.3
20260503040031 48 199 0.0 0.9 0.00 0.06 0.00 86 1010.2
20260503035530 48 199 0.0 0.9 0.00 0.06 0.06 87 1010.2
20260503035031 48 199 0.0 0.9 0.00 0.06 0.06 87 1010.2
20260503034530 48 198 0.0 0.9 0.00 0.06 0.06 88 1010.3
20260503034111 49 0.0 0.0 0.00 0.06 0.06 88 1010.3
20260503033530 48 0.0 0.0 0.00 0.06 0.06 89 1010.3
20260503033030 48 0.0 0.0 0.00 0.06 0.06 89 1010.4
20260503032610 49 0.0 0.0 0.00 0.06 0.06 89 1010.2
20260503032050 49 199 0.0 0.9 0.00 0.06 0.06 89 1010.4
20260503031529 49 0.0 0.0 0.00 0.06 0.06 89 1010.4
20260503031029 49 0.0 0.0 0.00 0.06 0.06 89 1010.4
20260503030529 49 0.0 0.0 0.00 0.06 0.06 88 1010.4
20260503030029 49 0.0 0.0 0.00 0.06 0.06 88 1010.4
20260503025531 49 0.0 0.0 0.00 0.06 0.06 88 1010.3
20260503025031 49 0.0 0.0 0.00 0.06 0.06 88 1010.2
20260503024531 49 0.0 0.0 0.00 0.06 0.06 88 1010.3
20260503024030 49 0.0 0.0 0.00 0.06 0.06 88 1010.4
20260503023530 49 0.0 0.0 0.00 0.06 0.06 87 1010.3
20260503023030 49 0.0 0.0 0.00 0.06 0.06 87 1010.3
20260503022550 49 0.0 0.0 0.00 0.06 0.06 87 1010.3
20260503022030 49 0.0 0.0 0.00 0.06 0.06 87 1010.4
20260503021530 49 0.0 0.0 0.00 0.06 0.06 87 1010.4
20260503021030 49 0.0 0.0 0.00 0.06 0.06 87 1010.6
20260503020529 49 0.0 0.0 0.00 0.06 0.06 87 1010.7
20260503020030 49 0.0 0.0 0.00 0.06 0.06 87 1010.8
20260503015529 49 0.0 0.0 0.00 0.06 0.06 86 1010.8
20260503015049 49 0.0 0.0 0.00 0.06 0.06 86 1010.8
20260503014529 50 0.0 0.0 0.00 0.06 0.06 85 1010.9
20260503014031 50 0.0 0.0 0.00 0.06 0.06 85 1010.9
20260503013530 50 0.0 0.0 0.00 0.06 0.06 84 1010.9
20260503013031 50 0.0 0.0 0.00 0.06 0.06 83 1010.9
20260503012530 50 0.0 0.0 0.00 0.06 0.06 83 1010.8
20260503012030 50 0.0 0.0 0.00 0.06 0.06 82 1010.9
20260503011530 50 0.0 0.0 0.00 0.06 0.06 81 1010.8
20260503011030 50 199 0.0 0.9 0.00 0.06 0.06 81 1010.7
20260503010530 50 199 0.0 0.9 0.00 0.06 0.06 81 1010.7
20260503010030 50 199 0.0 0.9 0.00 0.06 0.06 81 1010.7
20260503005529 50 199 0.0 0.9 0.00 0.06 0.06 82 1010.6
20260503005030 50 199 0.0 0.9 0.00 0.06 0.06 82 1010.5
20260503004650 50 199 0.0 0.9 0.00 0.06 0.06 83 1010.6
20260503004029 50 198 0.0 0.9 0.00 0.06 0.06 84 1010.5
20260503003529 50 0.0 0.0 0.00 0.06 0.06 84 1010.6
20260503003029 50 0.0 0.0 0.00 0.06 0.06 83 1010.5
20260503002531 50 0.0 0.0 0.00 0.06 0.06 82 1010.4
20260503002030 51 0.0 0.0 0.00 0.06 0.06 82 1010.4
20260503001551 51 0.0 0.0 0.00 0.06 0.06 81 1010.3
20260503001031 51 0.0 0.0 0.00 0.06 0.06 80 1010.2
20260503000530 51 0.0 0.9 0.00 0.06 0.06 80 1010.3
20260503000030 51 198 0.0 0.9 0.00 0.06 0.06 79 1010.2
20260502235530 51 198 0.0 0.9 0.00 0.06 0.06 79 1010.1
20260502235030 51 0.0 0.0 0.00 0.06 0.06 78 1010.1
20260502234529 52 0.0 1.7 0.00 0.06 0.06 77 1010.1
20260502234030 52 192 0.0 1.7 0.00 0.06 0.06 77 1010.0
20260502233609 52 172 0.0 1.7 0.00 0.06 0.06 77 1010.1
20260502233029 52 150 0.0 2.6 0.00 0.06 0.06 77 1010.0
20260502232529 52 143 0.0 2.6 0.00 0.06 0.06 77 1010.0
20260502232029 52 151 0.0 0.9 0.00 0.06 0.06 77 1010.0
20260502231530 52 0.0 0.9 0.00 0.06 0.06 77 1010.0
20260502231031 52 151 0.0 0.9 0.00 0.06 0.06 77 1010.0
20260502230531 52 152 0.0 0.9 0.00 0.06 0.06 76 1010.1
20260502230051 52 151 0.0 0.9 0.00 0.06 0.06 76 1010.1
20260502225531 52 151 0.0 0.9 0.00 0.06 0.06 76 1010.0
20260502225031 52 151 0.0 0.9 0.00 0.06 0.06 75 1010.0
20260502224531 52 151 0.0 1.7 0.00 0.06 0.06 75 1010.0
20260502224030 52 150 0.0 0.9 0.00 0.06 0.06 75 1009.9
20260502223530 52 152 0.0 1.7 0.00 0.06 0.06 74 1010.0
20260502223030 52 202 0.0 1.7 0.00 0.06 0.06 74 1010.0
20260502222529 53 202 0.0 2.6 0.00 0.06 0.06 74 1010.0
20260502222030 53 217 0.9 2.6 0.00 0.06 0.06 74 1010.1
20260502221530 53 0.0 0.0 0.00 0.06 0.06 73 1010.1
20260502221029 53 0.0 0.0 0.00 0.06 0.06 72 1010.1
20260502220529 53 0.0 0.0 0.00 0.06 0.06 70 1010.1
20260502220029 54 267 0.0 1.7 0.00 0.06 0.06 69 1010.1
20260502215529 54 201 0.0 0.9 0.00 0.06 0.06 68 1010.0
20260502215029 54 222 0.9 5.2 0.00 0.06 0.06 67 1009.9
20260502214531 54 219 0.0 5.2 0.00 0.06 0.06 66 1010.0
20260502214051 55 207 1.7 3.5 0.00 0.06 0.06 66 1010.0
20260502213530 55 179 0.9 6.1 0.00 0.06 0.06 65 1009.9
20260502213030 55 151 0.9 5.2 0.00 0.06 0.06 65 1009.9
20260502212530 55 170 1.7 5.2 0.00 0.06 0.06 63 1009.9
20260502212030 55 195 0.9 5.2 0.00 0.06 0.06 63 1009.9
20260502211550 55 215 1.7 7.0 0.00 0.06 0.06 62 1009.9
20260502211030 56 177 1.7 5.2 0.00 0.06 0.06 62 1009.8
20260502210530 56 210 1.7 6.1 0.00 0.06 0.06 61 1009.9
20260502210029 56 190 1.7 7.8 0.00 0.06 0.06 62 1009.8
20260502205529 56 168 2.6 7.8 0.00 0.06 0.06 62 1009.7
20260502205029 56 194 1.7 8.7 0.00 0.06 0.06 60 1009.8
20260502204550 56 166 3.5 11.3 0.00 0.06 0.06 60 1009.9
20260502204029 57 160 1.7 7.0 0.00 0.06 0.06 60 1009.8
20260502203529 57 176 1.7 7.0 0.00 0.06 0.06 59 1009.9
20260502203031 57 221 2.6 11.3 0.00 0.06 0.06 58 1009.9
20260502202530 57 201 2.6 9.6 0.00 0.06 0.06 58 1009.9
20260502202030 57 215 3.5 7.8 0.00 0.06 0.06 57 1010.0
20260502201550 57 170 2.6 7.8 0.00 0.06 0.06 57 1010.0
20260502201030 57 233 2.6 12.2 0.00 0.06 0.06 56 1010.0
20260502200530 58 238 2.6 12.2 0.00 0.06 0.06 57 1010.0
20260502200030 57 228 2.6 12.2 0.00 0.06 0.06 58 1010.0
20260502195550 57 204 4.3 13.0 0.00 0.06 0.06 59 1010.0
20260502195029 56 196 3.5 13.0 0.00 0.06 0.06 64 1010.1
20260502194529 55 198 2.6 12.2 0.00 0.06 0.06 65 1010.3
20260502194029 55 192 2.6 13.0 0.00 0.06 0.06 66 1010.5
20260502193529 55 207 3.5 13.0 0.00 0.06 0.06 65 1010.4
20260502193029 55 227 2.6 7.8 0.00 0.06 0.06 65 1010.5
20260502192534 55 191 1.7 7.0 0.00 0.06 0.06 65 1010.5
20260502192051 56 210 2.6 9.6 0.00 0.06 0.06 65 1010.6
20260502191535 55 202 0.9 3.5 0.00 0.06 0.06 68 1010.7
20260502191030 55 156 2.6 8.7 0.00 0.06 0.06 66 1010.7
20260502190531 55 186 1.7 8.7 0.00 0.06 0.06 66 1010.6
20260502190050 55 193 0.9 6.1 0.00 0.06 0.06 65 1010.6
20260502185531 54 191 2.6 9.6 0.00 0.06 0.06 65 1010.6
20260502185031 54 189 2.6 12.2 0.00 0.06 0.06 65 1010.6
20260502184530 54 181 3.5 13.0 0.00 0.06 0.06 62 1010.8
20260502184030 55 214 2.6 8.7 0.00 0.06 0.06 61 1010.7
20260502183551 55 180 2.6 12.2 0.00 0.06 0.06 60 1010.7
20260502183030 55 215 3.5 14.8 0.00 0.06 0.06 59 1010.7
20260502182530 55 204 2.6 13.0 0.00 0.06 0.06 60 1010.7
20260502182030 56 208 3.5 12.2 0.00 0.06 0.06 58 1010.7
20260502181529 56 201 2.6 9.6 0.00 0.06 0.06 57 1010.9
20260502181030 55 192 3.5 12.2 0.00 0.06 0.06 55 1010.9
20260502180529 55 234 2.6 12.2 0.00 0.06 0.06 54 1010.9
20260502164049 54 161 0.0 1.7 0.00 0.06 0.06 75 1011.2
20260502163529 54 187 0.9 2.6 0.00 0.06 0.06 74 1011.3
20260502163029 54 221 0.9 1.7 0.00 0.06 0.06 76 1011.2
20260502162530 54 271 0.0 2.6 0.00 0.06 0.06 76 1011.3
20260502162030 54 283 0.0 2.6 0.00 0.06 0.06 77 1011.4
20260502161530 54 278 0.9 1.7 0.00 0.06 0.06 76 1011.5
20260502161030 54 0.0 0.9 0.00 0.06 0.06 76 1011.5
20260502160530 54 159 0.9 3.5 0.00 0.06 0.06 75 1011.6
20260502152031 53 107 0.9 5.2 0.00 0.06 0.06 79 1011.7
20260502151530 53 137 0.9 5.2 0.00 0.06 0.06 78 1011.8
20260502151031 54 218 0.9 5.2 0.00 0.06 0.06 79 1011.8
20260502150530 54 192 0.9 1.7 0.00 0.06 0.06 79 1011.9
20260502130529 47 160 0.0 1.7 0.01 0.02 0.02 88 1012.9
20260502123610 47 23 0.9 1.7 0.01 0.02 0.02 87 1012.4
20260502123050 48 24 0.0 2.6 0.01 0.02 0.02 86 1012.6
20260502122529 48 11 0.9 2.6 0.01 0.02 0.02 85 1012.6
20260502122029 48 7 0.9 3.5 0.01 0.02 0.02 85 1012.5
20260502121529 48 2 0.9 3.5 0.01 0.02 0.02 87 1012.4
20260502121029 48 357 0.9 1.7 0.01 0.02 0.02 88 1012.2
20260502120529 48 139 0.0 1.7 0.02 0.02 0.02 90 1012.3
20260502115549 48 153 0.0 0.9 0.02 0.02 0.02 91 1012.2
20260502115029 48 155 0.0 0.9 0.02 0.02 0.02 90 1012.2
20260502114531 48 161 0.0 0.9 0.01 0.01 0.01 89 1012.0
20260502114030 48 0.0 0.0 0.01 0.01 0.01 88 1012.1
20260502113550 48 0.0 0.0 0.01 0.01 0.01 90 1012.1
20260502113030 48 0.0 0.0 0.01 0.01 0.01 88 1012.0
20260502112530 48 0.0 0.0 0.01 0.01 0.01 87 1012.1
20260502112030 48 160 0.0 0.9 0.01 0.01 0.01 86 1012.2
20260502111530 48 161 0.0 0.9 0.00 0.00 0.00 86 1012.2
20260502111030 48 0.0 0.0 0.00 0.00 0.00 85 1011.8
20260502110529 48 161 0.0 1.7 0.00 0.00 0.00 86 1011.9
20260502110029 48 162 0.0 1.7 0.00 0.00 0.00 85 1011.7
20260502105549 48 163 0.0 1.7 0.00 0.00 0.00 86 1011.5
20260502105029 48 179 0.0 1.7 0.00 0.00 0.00 85 1011.7
20260502104529 47 0.0 0.0 0.00 0.00 0.00 86 1011.7
20260502104029 47 193 0.0 1.7 0.00 0.00 0.00 87 1011.6
20260502103529 47 179 0.0 1.7 0.00 0.00 0.00 90 1011.5
20260502103052 46 181 0.0 0.9 0.00 0.00 0.00 91 1011.4
20260502102530 46 0.0 0.0 0.00 0.00 0.00 90 1011.3
20260502102050 46 0.0 0.0 0.00 0.00 0.00 90 1011.2
20260502101530 46 0.0 0.0 0.00 0.00 0.00 90 1011.2
20260502101030 46 0.0 0.0 0.00 0.00 0.00 90 1011.1
20260502100530 46 0.0 0.0 0.00 0.00 0.00 89 1011.0
20260502091530 47 170 0.0 0.9 0.00 0.00 0.00 81 1011.8
20260502091030 46 166 0.0 1.7 0.00 0.00 0.00 80 1011.4
20260502090530 46 166 0.0 1.7 0.00 0.00 0.00 80 1011.4
20260502071530 45 30 0.0 0.9 0.00 0.00 0.00 81 1011.5
20260502071030 45 0.0 0.0 0.00 0.00 0.00 81 1011.6
20260502070550 44 30 0.0 0.9 0.00 0.00 0.00 81 1011.8
20260502070029 44 0.0 0.0 0.00 0.00 0.00 81 1011.8
20260502065529 44 0.0 0.0 0.00 0.00 0.00 82 1011.7
20260502065030 43 0.0 0.0 0.00 0.00 0.00 83 1011.7
20260502064549 42 0.0 0.0 0.00 0.00 0.00 85 1011.4
20260502064029 42 0.0 0.0 0.00 0.00 0.00 86 1011.3
20260502063529 42 0.0 0.0 0.00 0.00 0.00 84 1011.4
20260502063029 42 0.0 0.0 0.00 0.00 0.00 84 1011.3
20260502062609 42 0.0 0.0 0.00 0.00 0.00 83 1011.3
20260502062049 43 0.0 0.0 0.00 0.00 0.00 83 1011.2
20260502061528 43 0.0 0.0 0.00 0.00 0.00 83 1011.3
20260502061050 43 0.0 0.0 0.00 0.00 0.00 82 1011.2
20260502060530 43 0.0 0.0 0.00 0.00 0.00 82 1011.3
20260502060030 43 0.0 0.0 0.00 0.00 0.00 82 1011.4
20260502055550 43 0.0 0.0 0.00 0.00 0.00 83 1011.4
20260502055030 43 0.0 0.9 0.00 0.00 0.00 81 1011.3
20260502054550 43 30 0.0 0.9 0.00 0.00 0.00 81 1011.3
20260502054030 43 0.0 0.0 0.00 0.00 0.00 82 1011.3
20260502053529 43 0.0 0.0 0.00 0.00 0.00 84 1011.3
20260502053049 44 0.0 0.0 0.00 0.00 0.00 82 1011.4
20260502052529 44 0.0 0.0 0.00 0.00 0.00 83 1011.4
20260502052029 44 0.0 0.0 0.00 0.00 0.00 82 1011.4
20260502051529 44 0.0 0.0 0.00 0.00 0.00 80 1011.4
20260502051114 44 0.0 0.0 0.00 0.00 0.00 82 1011.3
20260502050528 44 0.0 0.0 0.00 0.00 0.00 79 1011.2
20260502050028 44 0.0 0.0 0.00 0.00 0.00 80 1011.4
20260502045530 44 0.0 0.0 0.00 0.00 0.00 80 1011.5
20260502045050 44 0.0 0.0 0.00 0.00 0.00 80 1011.5
20260502044550 44 0.0 0.0 0.00 0.00 0.00 80 1011.6
20260502044030 44 0.0 0.0 0.00 0.00 0.00 78 1011.7
20260502043530 44 0.0 0.0 0.00 0.00 0.00 78 1011.7
20260502043029 44 0.0 0.0 0.00 0.00 0.00 78 1011.8
20260502042529 45 0.0 0.0 0.00 0.00 0.00 78 1011.7
20260502042029 45 0.0 0.0 0.00 0.00 0.00 78 1011.7
20260502041529 45 0.0 0.0 0.00 0.00 0.00 76 1011.6